Showing default

HBTSS-SV2, 58955

Orbit data source: Space-Track

HBTSS-SV2, 58955 is a payload satellite owned by MDA (US) in LEO that was launched on Wed, 14 Feb 2024 UTC via an FALCON 9 launch vehicle from the Air Force Eastern Test Range (AFETR). Payload-class satellites include a variety of spacecraft equipped with specific instruments for various scientific and technological missions. These include communications satellites like Starlink; space stations such as the ISS; scientific satellites like the Hubble; Earth observation satellites from companies like Planet Labs, Umbra, and HawkEye 360; GPS; miniature CubeSats for education and research; and military/defense satellites.

Loading next visibility...
Identifier
58955, 2024-028A
Orbit
LEO
Last TLE update
10 hours ago
Origin
Manufacturer
NGIS
Mission
Operational Commercial Early Warn
Bus & Motor
HBT-NG, Unknown motor
Mass
~1,000 kg wet, ~1,000 kg dry
Launch date (UTC)
2024-02-14 (1 year ago)
Launch vehicle
FALCON 9
Launch site
Air Force Eastern Test Range (AFETR)
Object type
Payload
Rocket body
Debris
Shape & HBR
Box + 2 Pan, 2 m
Radar Cross Section
1.012 m², Large (>1 m²)

Expand to show TLE details & history

TLE from 10 hours ago
0 HBTSS-SV2
1 58955U 24028A   25128.93340950  .00000041  00000-0  13306-3 0  9990
2 58955  39.9900 100.9968 0016567  82.3743 277.8884 13.70379748 61605
Epoch: 2025-05-08T22:24Z
Definitive object data (Epoch: 2025-05-08T22:24:06.58Z)
Latitude
-0.00006°
Longitude
-102.02748°
Altitude
996.032 km
Speed
7.356 km/s
True Right ascension
06h 43m 59s
True Declination
0° 00' 00"
Sunlit
Object was in daylight at TLE epoch
Visualization TLE readout
Latitude
-39.92402°
Longitude
173.06015°
Altitude
1,022.032 km
Speed
7.335 km/s
Apparent Right ascension
02h 42m 46s
Apparent Declination
-42° 56' 19"
Sunlit
Object is in daylight
Visualization observer readout
Local Sidereal Time
16:38:17
Azimuth
107.451° ESE
Elevation
-68.245°
Doppler factor
1
Orbital elements
Apogee altitude
1,012.709 km
Perigee altitude
988.261 km
Semi-major axis
7,378.622 km
Eccentricity
0.0016567
Inclination
39.99°
RAAN
100.9968°
Arg. of periapsis
82.3743°
True anomaly
277.7003°
Mean anomaly
277.8884°
Eccentric anomaly
277.79436°
Mean motion
3.42437 °/min
BSTAR
0.00013306
Orbital period
105.13 mins
Loading maneuver chart data...
Loading SW <> Apogee altitude chart data...
Loading historical data...
Loading historical data...
Loading historical data...
Loading historical data...
Loading historical data...
Loading historical data...
Loading historical data...
Other satellites on launch #28 in the year 2024 (2024-02-14 UTC)

HBTSS-SV2 Visibility forecast

Observer location: undefined°, undefined°

Span
Click to sort rows by Start time (UTC) header in descending order
Start Az.
Max El. time (UTC)
Max El. Az.
Max El.
End time (UTC)
End Az.
10 mins2025-05-10 00:49:07.169Z208.19° SW2025-05-10 00:54:07.169Z149.729° SSE29.881°2025-05-10 00:59:07.169Z89.687° E
11 mins2025-05-10 02:40:07.169Z248.525° W2025-05-10 02:45:07.169Z142.773° SSE44.096°2025-05-10 02:51:07.169Z81.556° E
11 mins2025-05-10 04:31:07.169Z273.65° WNW2025-05-10 04:36:07.169Z124.023° SE44.995°2025-05-10 04:42:07.169Z95.88° ESE
11 mins2025-05-10 06:22:07.169Z275.611° WNW2025-05-10 06:27:07.169Z202.527° SW39.694°2025-05-10 06:33:07.169Z127.66° SE
7 mins2025-05-10 08:14:07.169Z253.954° W2025-05-10 08:17:07.169Z222.586° SW18.803°2025-05-10 08:21:07.169Z180.518° SSW
|